[[{"header":{"parameterUnit":"m.s-1","parameterCategory":1,"la1":30.2991,"la2":30.254,"lo1":-89.0895,"lo2":-89.0444,"dx":0.0017,"dy":0.0017,"nx":28,"ny":28,"refTime":"2022-12-03T09:00:00:Z","depth":0,"parameterNumber":2,"parameterNumberName":"U-component_of_WINDS"},"data":[0,0,0,0,0,0,0,0,0,0,0,0,0,0,0,0,0,0,0,0,0,0,0,0,0,0,0,0,0,0,0,0,0,0,0,0,0,0,0,0,0,0,0,0,0,0,0,0,0,0,0,0,0,0,0,0,0,0,-4.6856,-4.6857,0,-4.6927,-4.6928,-4.6928,-4.6878,-4.6876,-4.6873,-4.6871,-4.6942,-4.6946,-4.695,0,0,0,0,0,0,0,0,0,0,0,0,0,-4.6679,-4.6682,-4.6856,-4.6857,-4.6858,-4.6927,-4.6928,-4.6929,-4.6878,-4.6875,-4.6873,-4.687,-4.6941,-4.6946,-4.6951,0,0,0,0,0,0,0,0,0,0,0,0,0,-4.6753,-4.6684,-4.6856,-4.6841,-4.6841,-4.6927,-4.6928,-4.6929,-4.6879,-4.6875,-4.6872,-4.6869,-4.694,-4.6945,-4.6951,-4.7055,0,0,-4.6969,-4.6972,0,0,0,0,0,0,0,0,-4.6749,-4.676,-4.6843,-4.6842,-4.6842,-4.689,-4.6891,-4.6971,-4.688,-4.6864,-4.6871,-4.6867,-4.6928,-4.6934,-4.6955,-4.7059,-4.7062,-4.697,-4.6974,-4.6976,-4.6978,0,0,0,0,0,0,0,-4.6744,-4.6757,-4.6884,-4.6844,-4.6843,-4.6831,-4.6838,-4.6906,-4.6914,-4.6865,-4.6862,-4.6871,-4.6927,-4.6949,-4.6956,-4.7063,-4.697,-4.6975,-4.6979,-4.6981,-4.7257,-4.7261,0,0,0,0,0,0,-4.674,-4.6753,-4.6882,-4.6886,-4.6786,-4.6837,-4.6845,-4.6878,-4.6913,-4.6915,-4.6874,-4.6868,-4.6941,-4.6949,-4.6959,-4.7082,-4.6976,-4.6982,-4.6985,-4.7253,-4.7258,-4.7262,0,0,0,0,0,0,-4.6737,-4.6752,-4.6879,-4.6819,-4.6834,-4.6844,-4.6881,-4.6881,-4.6903,-4.6919,-4.692,-4.6895,-4.6938,-4.695,-4.7032,-4.7084,-4.6984,-4.699,-4.7249,-4.7255,-4.726,-4.7332,0,0,0,0,0,0,-4.6732,-4.6751,-4.679,-4.682,-4.6837,-4.6951,-4.6885,-4.6885,-4.6914,-4.6908,-4.694,-4.6942,-4.6937,-4.7023,-4.7038,-4.7091,-4.6995,-4.7244,-4.7252,-4.7258,-4.7324,-4.7339,-4.7351,0,0,0,0,0,-4.6726,-4.6807,-4.6793,-4.6808,-4.6886,-4.6954,-4.6964,-4.6957,-4.6919,-4.6958,-4.6969,-4.6941,-4.7077,-4.7032,-4.7048,-4.7103,-4.7241,-4.725,-4.7258,-4.7318,-4.7336,-4.7351,0,0,0,0,0,0,-4.6782,-4.681,-4.6795,-4.6888,-4.6919,-4.6945,-4.6994,-4.6975,-4.7017,-4.7009,-4.6999,-4.7007,-4.7092,-4.7107,-4.7056,-4.7207,-4.7153,-4.7165,-4.7194,-4.7211,-4.7224,-4.7217,-4.7,0,0,0,0,0,-4.6806,-4.6859,-4.6881,-4.6961,-4.6978,-4.6984,-4.7013,-4.7005,-4.7037,-4.7049,-4.7066,-4.7098,-4.7148,-4.718,-4.7227,-4.7328,-4.7334,-4.7374,-4.7388,-4.7399,-4.7408,-4.7463,-4.748,-4.729,-4.729,-4.7289,0,0,-4.6854,-4.6877,-4.691,-4.6973,-4.6996,-4.7051,-4.6995,-4.7055,-4.7096,-4.7058,-4.7136,-4.7151,-4.7185,-4.7277,-4.7318,-4.7291,-4.7463,-4.7409,-4.7418,-4.7421,-4.7473,-4.7491,-4.7507,-4.7295,-4.7294,-4.7293,0,0,-4.697,-4.6993,-4.7062,-4.7088,-4.7124,-4.7128,-4.7146,-4.7176,-4.7183,-4.7262,-4.7236,-4.7285,-4.7371,-4.7397,-4.7422,-4.7553,-4.7528,-4.7569,-4.7637,-4.769,-4.7705,-4.7718,-4.7764,-4.778,-4.7579,-4.7579,-4.7579,0,-4.7025,-4.7106,-4.71,-4.7163,-4.7192,-4.7163,-4.7233,-4.7258,-4.7308,-4.7329,-4.7299,-4.7408,-4.7429,-4.7527,-4.7559,-4.7581,-4.7599,-4.7562,-4.7704,-4.7717,-4.7729,-4.7772,-4.779,-4.7583,-4.7583,-4.7582,-4.7582,0,-4.7172,-4.723,-4.7282,-4.7332,-4.7367,-4.7433,-4.7437,-4.7474,-4.7465,-4.7473,-4.7554,-4.758,-4.7632,-4.7655,-4.7646,-4.7753,-4.7735,-4.7705,-4.765,-4.7752,-4.7792,-4.7809,-4.759,-4.7588,-4.7587,-4.7586,0,0,-4.732,-4.7369,-4.7388,-4.7411,-4.7451,-4.7496,-4.7562,-4.7614,-4.7645,-4.7682,-4.7737,-4.7813,-4.7786,-4.7814,-4.7809,-4.7856,-4.7958,-4.7821,-4.7821,-4.7843,-4.8076,-4.8096,-4.8115,-4.7944,-4.7947,-4.7949,-4.8072,0,-4.7437,-4.7552,-4.755,-4.7657,-4.771,-4.7686,-4.7744,-4.7775,-4.7786,-4.7833,-4.7844,-4.7898,-4.7859,-4.7876,-4.7922,-4.7935,-4.8003,-4.7927,-4.7993,-4.7996,-4.7982,-4.8136,-4.8157,-4.8271,-4.8088,-4.8091,-4.8093,0,-4.7586,-4.763,-4.7742,-4.7776,-4.7798,-4.785,-4.7899,-4.7944,-4.798,-4.7985,-4.8019,-4.8007,-4.8075,-4.8021,-4.8115,-4.8063,-4.8091,-4.8102,-4.8106,-4.8109,-4.8048,-4.8141,-4.8307,-4.8324,-4.8118,-4.8116,-4.8114,0,-4.7681,-4.7768,-4.7846,-4.7867,-4.7909,-4.7946,-4.7966,-4.7999,-4.8031,-4.8074,-4.8095,-4.8146,-4.8172,-4.8212,-4.8214,-4.8175,-4.8309,-4.8255,-4.8314,-4.8314,-4.8339,-4.8337,-4.851,-4.8363,-4.8363,-4.8362,-4.8362,0,-4.7809,-4.7878,-4.7889,-4.7937,-4.8014,-4.8013,-4.809,-4.8106,-4.8137,-4.8188,-4.8171,-4.822,-4.8221,-4.8271,-4.8274,-4.8351,-4.8364,-4.8369,-4.8368,-4.8368,-4.8367,-4.8383,-4.8374,-4.8367,-4.8366,-4.8365,-4.8364,0,-4.7925,-4.7936,-4.8019,-4.8055,-4.8065,-4.8121,-4.815,-4.8196,-4.8208,-4.8272,-4.8288,-4.8304,-4.8362,-4.837,-4.8438,-4.844,-4.8532,-4.8524,-4.8519,-4.8517,-4.8574,-4.8567,-4.876,-4.8785,-4.8625,-4.8627,-4.8628,0,-4.8004,-4.8057,-4.8099,-4.8132,-4.8154,-4.8208,-4.8242,-4.8244,-4.828,-4.8327,-4.8367,-4.8424,-4.8469,-4.8563,-4.8581,-4.8634,-4.8626,-4.869,-4.8633,-4.8632,-4.8624,-4.8619,-4.8624,-4.8699,-4.8701,-4.8703,-4.8704,0,-4.8143,-4.8147,-4.8195,-4.8247,-4.8288,-4.8328,-4.8367,-4.8395,-4.8403,-4.8444,-4.8504,-4.8539,-4.861,-4.8666,-4.8718,-4.8739,-4.8723,-4.8723,-4.8738,-4.8737,-4.8731,-4.8733,-4.8546,-4.8717,-4.8716,-4.8715,-4.8714,-4.8713,-4.8242,-4.8288,-4.8325,-4.838,-4.841,-4.8447,-4.8492,-4.851,-4.856,-4.8618,-4.8618,-4.8683,-4.8721,-4.8789,-4.8814,-4.8866,-4.8844,-4.8868,-4.8873,-4.8878,-4.8883,-4.8727,-4.8876,-4.8875,-4.8875,-4.8875,-4.8875,0,-4.8378,-4.8401,-4.8453,-4.8508,-4.8552,-4.8536,-4.8579,-4.8616,-4.8674,-4.8711,-4.8757,-4.8826,-4.8882,-4.8907,-4.8962,-4.8998,-4.8993,-4.9013,-4.9008,-4.9013,-4.8899,-4.8879,-4.9016,-4.9016,-4.9016,-4.9016,-4.9016,-4.9016,-4.8453,-4.853,-4.8539,-4.8632,-4.8655,-4.872,-4.8745,-4.878,-4.8809,-4.8888,-4.8934,-4.8951,-4.8983,-4.9041,-4.9092,-4.9098,-4.9118,-4.914,-4.9143,-4.9035,-4.9021,-4.9007,-4.8988,-4.9145,-4.9146,-4.9251,-4.9252,-4.9253]},{"header":{"parameterUnit":"m.s-1","parameterCategory":1,"la1":30.2991,"la2":30.254,"lo1":-89.0895,"lo2":-89.0444,"dx":0.0017,"dy":0.0017,"nx":28,"ny":28,"refTime":"2022-12-03T09:00:00:Z","depth":0,"parameterNumber":3,"parameterNumberName":"V-component_of_WINDS"},"data":[0,0,0,0,0,0,0,0,0,0,0,0,0,0,0,0,0,0,0,0,0,0,0,0,0,0,0,0,0,0,0,0,0,0,0,0,0,0,0,0,0,0,0,0,0,0,0,0,0,0,0,0,0,0,0,0,0,0,1.7359,1.7359,0,1.7366,1.7366,1.7366,1.7373,1.7373,1.7373,1.7373,1.7375,1.7375,1.7375,0,0,0,0,0,0,0,0,0,0,0,0,0,1.7351,1.7351,1.7359,1.7359,1.7359,1.7366,1.7366,1.7366,1.7373,1.7373,1.7373,1.7373,1.7375,1.7375,1.7375,0,0,0,0,0,0,0,0,0,0,0,0,0,1.7356,1.7351,1.7359,1.7364,1.7364,1.7366,1.7366,1.7366,1.7372,1.7373,1.7373,1.7373,1.7375,1.7375,1.7375,1.7372,0,0,1.7375,1.7375,0,0,0,0,0,0,0,0,1.7356,1.7356,1.7363,1.7363,1.7364,1.7369,1.7364,1.7368,1.7372,1.7369,1.7373,1.7373,1.7373,1.7373,1.7373,1.7372,1.7372,1.7375,1.7375,1.7375,1.7375,0,0,0,0,0,0,0,1.7355,1.7356,1.7362,1.7363,1.7364,1.7365,1.7366,1.7365,1.737,1.7369,1.737,1.7371,1.7373,1.7374,1.7374,1.7372,1.7375,1.7375,1.7375,1.7375,1.7371,1.7371,0,0,0,0,0,0,1.7355,1.7356,1.7362,1.7362,1.736,1.7365,1.7366,1.7367,1.737,1.7371,1.7371,1.7371,1.7374,1.7374,1.7374,1.7372,1.7375,1.7375,1.7375,1.7371,1.7371,1.7371,0,0,0,0,0,0,1.7354,1.7355,1.7361,1.7359,1.736,1.7365,1.7366,1.7367,1.7368,1.7371,1.7372,1.7371,1.7374,1.7374,1.7373,1.7372,1.7375,1.7375,1.7371,1.7371,1.7371,1.7367,0,0,0,0,0,0,1.7354,1.7355,1.7354,1.7359,1.736,1.7361,1.7366,1.7367,1.7368,1.7369,1.7371,1.7371,1.7374,1.7373,1.7373,1.7372,1.7375,1.7371,1.7371,1.7371,1.7367,1.7367,1.7367,0,0,0,0,0,1.7354,1.7351,1.7354,1.7354,1.7359,1.7361,1.7361,1.7365,1.7368,1.7367,1.737,1.7371,1.7372,1.7373,1.7373,1.7372,1.7371,1.7371,1.7371,1.7368,1.7367,1.7367,0,0,0,0,0,0,1.7343,1.7351,1.7355,1.7353,1.7357,1.7362,1.7361,1.7364,1.7366,1.7366,1.737,1.737,1.737,1.7371,1.7371,1.7371,1.7372,1.7372,1.737,1.7369,1.7369,1.7369,1.7375,0,0,0,0,0,1.7341,1.7343,1.735,1.7348,1.735,1.7355,1.7356,1.7359,1.7362,1.7363,1.7365,1.7367,1.7369,1.7369,1.737,1.7368,1.7369,1.7367,1.7367,1.7367,1.7366,1.7368,1.7368,1.7371,1.7371,1.7371,0,0,1.7335,1.734,1.7341,1.7346,1.7349,1.7351,1.7356,1.7357,1.7358,1.7363,1.7363,1.7365,1.7368,1.7368,1.7367,1.7368,1.7366,1.7367,1.7366,1.7366,1.7368,1.7368,1.7367,1.737,1.737,1.737,0,0,1.7327,1.733,1.7331,1.7335,1.734,1.7344,1.7345,1.735,1.7353,1.7354,1.7358,1.736,1.7361,1.7364,1.7365,1.7362,1.7364,1.7362,1.736,1.7361,1.7361,1.7361,1.7361,1.7361,1.7362,1.7362,1.7362,0,1.7319,1.7323,1.733,1.7332,1.7335,1.7342,1.7343,1.7345,1.735,1.7352,1.7353,1.7358,1.7359,1.7361,1.7361,1.7361,1.7362,1.7361,1.7361,1.7361,1.7361,1.7361,1.7361,1.7362,1.7362,1.7362,1.7362,0,1.7314,1.7317,1.7316,1.7324,1.7327,1.7328,1.7335,1.7337,1.7341,1.7345,1.7348,1.7351,1.7354,1.7355,1.7357,1.7357,1.7358,1.736,1.7362,1.736,1.7361,1.7361,1.7361,1.7361,1.7361,1.7361,0,0,1.7296,1.7311,1.7311,1.7316,1.7324,1.7326,1.7328,1.7334,1.7336,1.734,1.7342,1.7345,1.7348,1.735,1.7353,1.7355,1.7355,1.7357,1.7357,1.7357,1.7357,1.7356,1.7356,1.7357,1.7357,1.7357,1.7358,0,1.729,1.7296,1.7304,1.7307,1.7311,1.732,1.7322,1.7327,1.7332,1.7336,1.734,1.7343,1.7346,1.7348,1.735,1.7354,1.7355,1.7354,1.7359,1.7359,1.7359,1.7356,1.7354,1.7355,1.7358,1.7358,1.7358,0,1.7282,1.7289,1.7294,1.7305,1.7307,1.7309,1.7316,1.7319,1.7326,1.733,1.7334,1.7339,1.7342,1.7345,1.735,1.735,1.7353,1.7355,1.7356,1.7356,1.7358,1.7358,1.7355,1.7355,1.7358,1.7358,1.7358,0,1.7271,1.7281,1.7286,1.7289,1.7302,1.7304,1.7309,1.7317,1.732,1.7326,1.7329,1.7335,1.7338,1.7342,1.7349,1.7349,1.7354,1.7356,1.7357,1.7357,1.7357,1.7357,1.7356,1.7358,1.7358,1.7358,1.7358,0,1.7263,1.7266,1.7281,1.7284,1.7288,1.7298,1.7301,1.7307,1.7314,1.7318,1.7325,1.7329,1.7337,1.7342,1.7347,1.7352,1.7353,1.7356,1.7357,1.7356,1.7356,1.7357,1.7358,1.7358,1.7358,1.7358,1.7358,0,1.7251,1.7261,1.7267,1.728,1.7284,1.7286,1.7297,1.7301,1.7307,1.7313,1.7315,1.7325,1.7331,1.7339,1.7346,1.735,1.7355,1.7356,1.7353,1.7354,1.7355,1.7355,1.7355,1.7356,1.7357,1.7357,1.7357,0,1.7245,1.7248,1.7263,1.7267,1.7273,1.728,1.7285,1.7295,1.73,1.731,1.7313,1.732,1.7327,1.7337,1.7344,1.7351,1.7354,1.7353,1.7354,1.7354,1.7355,1.7355,1.7356,1.7353,1.7353,1.7353,1.7352,0,1.7235,1.7241,1.7248,1.7259,1.7265,1.7273,1.7282,1.7285,1.7297,1.7302,1.731,1.7316,1.7326,1.7334,1.7343,1.7347,1.7352,1.7353,1.7353,1.7352,1.735,1.7353,1.7353,1.7352,1.7352,1.7352,1.7352,1.7352,1.7226,1.723,1.7242,1.7251,1.726,1.7268,1.7273,1.7282,1.729,1.73,1.7306,1.7314,1.7324,1.7336,1.7342,1.7348,1.735,1.735,1.7351,1.7351,1.7351,1.735,1.735,1.735,1.735,1.735,1.735,0,1.7217,1.7227,1.7235,1.7248,1.7256,1.7263,1.7273,1.7279,1.7287,1.7296,1.7304,1.7315,1.7323,1.7333,1.7342,1.7346,1.7349,1.7348,1.7348,1.7349,1.7349,1.7348,1.7346,1.7346,1.7346,1.7346,1.7346,1.7346,1.7213,1.7222,1.723,1.7243,1.7252,1.7262,1.7268,1.7276,1.7284,1.7296,1.7304,1.7312,1.7322,1.7332,1.7341,1.7344,1.7347,1.7346,1.7349,1.7349,1.7349,1.7349,1.7348,1.7347,1.7347,1.735,1.735,1.735]}]]